Waarnemingen

Advertentie
Mijn weer
Gemini, Nederland (6214): temperatuur & dauwpunt: 19.02.2018 20:00:00 - 25.02.2018 20:00:00 (CET)Gemini, Nederland (6214): windsnelheid & windstoten: 19.02.2018 20:00:00 - 25.02.2018 20:00:00 (CET)Gemini, Nederland (6214): windrichting: 19.02.2018 20:00:00 - 25.02.2018 20:00:00 (CET)Gemini, Nederland (6214): luchtdruk: 19.02.2018 20:00:00 - 25.02.2018 20:00:00 (CET)Gemini, Nederland (6214): zicht: 19.02.2018 20:00:00 - 25.02.2018 20:00:00 (CET)
Datum & Tijd tt [°C] td [°C] ff [km/u] ff [kn] fx [km/u] fx [kn] dd ppp [hPa] vv [km]
25.02.2018 20:00:00 -2,0 -6,3 40 21 58 31 O 1034,1 5
25.02.2018 19:00:00 -1,5 -6,8 39 21 50 27 - 1033,9 10
25.02.2018 18:00:00 -0,9 -6,9 42 23 50 27 O 1033,6 10
25.02.2018 17:00:00 -1,1 -5,4 26 14 40 21 - 1033,5 10
25.02.2018 16:00:00 -0,5 -7,3 24 13 36 19 O 1033,7 10
25.02.2018 15:00:00 -1,3 -4,0 18 10 32 18 - 1033,9 6
25.02.2018 14:00:00 -2,1 -3,3 34 18 40 21 O 1034,3 2,2
25.02.2018 13:00:00 -0,8 -6,6 16 9 22 12 OZO 1034,5 10
25.02.2018 12:00:00 -0,8 -7,2 14 8 29 16 OZO 1034,8 50
25.02.2018 11:00:00 -0,9 -8,0 24 13 32 18 OZO 1035,1 10
25.02.2018 10:00:00 -1,0 -9,0 28 15 32 18 OZO 1035,1 10
25.02.2018 09:00:00 -1,2 -9,4 31 17 40 21 OZO 1035,0 10
25.02.2018 08:00:00 -1,1 -9,8 34 18 40 21 OZO 1034,5 10
25.02.2018 07:00:00 -1,1 -9,1 35 19 43 23 OZO 1034,3 -
25.02.2018 06:00:00 -1,5 -10,1 39 21 43 23 OZO 1033,7 -
25.02.2018 05:00:00 -1,2 -8,8 41 22 47 25 ZO 1033,6 -
25.02.2018 04:00:00 -1,0 -9,1 36 19 50 27 OZO 1033,4 50
25.02.2018 03:00:00 -0,6 -7,8 41 22 47 25 ZO 1033,4 10
25.02.2018 02:00:00 -0,3 -8,7 42 23 47 25 OZO 1033,4 10
25.02.2018 01:00:00 0,1 -7,2 44 24 50 27 OZO 1033,3 10
25.02.2018 00:00:00 0,3 -7,6 44 24 50 27 OZO 1033,0 10
24.02.2018 23:00:00 0,6 -6,7 44 24 50 27 OZO 1032,8 10
24.02.2018 22:00:00 0,7 -7,5 52 28 54 29 OZO 1032,6 10
24.02.2018 21:00:00 1,2 -5,6 50 27 54 29 OZO 1032,3 10
24.02.2018 20:00:00 1,1 -5,9 46 25 54 29 OZO 1031,9 10
24.02.2018 19:00:00 1,2 -6,1 54 29 54 29 OZO 1031,7 10
24.02.2018 18:00:00 1,4 -5,8 43 23 54 29 O 1031,2 49
24.02.2018 17:00:00 1,5 -5,7 46 25 50 27 OZO 1031,1 10
24.02.2018 16:00:00 1,6 -4,4 46 25 47 25 OZO 1031,1 10
24.02.2018 15:00:00 1,8 -3,3 41 22 47 25 OZO 1031,2 10
24.02.2018 14:00:00 1,5 -3,4 46 25 50 27 OZO 1031,3 10
24.02.2018 13:00:00 1,4 -3,5 44 24 54 29 ZO 1031,1 10
24.02.2018 12:00:00 1,3 -3,5 52 28 58 31 ZO 1031,1 10
24.02.2018 11:00:00 1,1 -3,0 50 27 54 29 OZO 1030,8 10
24.02.2018 10:00:00 1,6 -2,5 54 29 54 29 OZO 1030,4 10
24.02.2018 09:00:00 0,9 -2,9 46 25 54 29 OZO 1030,1 10
24.02.2018 08:00:00 0,8 -3,4 50 27 54 29 OZO 1029,6 10
24.02.2018 07:00:00 0,7 -5,6 52 28 54 29 OZO 1029,0 10
24.02.2018 06:00:00 0,9 -5,4 52 28 50 27 OZO 1028,7 -
24.02.2018 05:00:00 0,9 -4,3 50 27 54 29 OZO 1028,4 10
24.02.2018 04:00:00 1,2 -6,4 46 25 50 27 OZO 1027,9 -
24.02.2018 03:00:00 1,0 -6,1 44 24 47 25 OZO 1028,0 10
24.02.2018 02:00:00 1,1 -5,8 42 23 47 25 OZO 1027,8 -
24.02.2018 01:00:00 1,2 -6,4 41 22 43 23 OZO 1027,7 -
24.02.2018 00:00:00 1,2 -5,6 41 22 43 23 OZO 1027,7 10
23.02.2018 23:00:00 1,5 -7,4 41 22 43 23 OZO 1027,5 10
23.02.2018 22:00:00 1,7 -6,7 41 22 43 23 OZO 1027,0 10
23.02.2018 21:00:00 1,8 -6,6 41 22 43 23 OZO 1026,8 10
23.02.2018 20:00:00 1,8 -4,2 36 19 43 23 OZO 1026,5 45
23.02.2018 19:00:00 1,8 -3,7 41 22 43 23 OZO 1026,3 10
23.02.2018 18:00:00 1,3 -4,7 37 20 43 23 O 1026,3 10
23.02.2018 17:00:00 1,1 -4,7 35 19 43 23 - 1026,4 10
23.02.2018 16:00:00 1,3 -5,2 29 16 43 23 OZO 1026,3 50
23.02.2018 15:00:00 1,3 -4,5 37 20 40 21 O 1026,5 10
23.02.2018 14:00:00 1,5 -7,0 29 16 36 19 OZO 1026,7 50
23.02.2018 13:00:00 1,6 -5,4 29 16 32 18 OZO 1027,0 10
23.02.2018 12:00:00 1,6 -5,5 28 15 36 19 OZO 1027,3 10
23.02.2018 11:00:00 1,8 -5,7 26 14 32 18 OZO 1027,5 10
23.02.2018 10:00:00 1,7 -6,2 26 14 36 19 OZO 1027,3 10
23.02.2018 09:00:00 1,8 -5,7 25 14 36 19 OZO 1026,9 50
23.02.2018 08:00:00 1,9 -3,6 28 15 32 18 OZO 1026,7 10
23.02.2018 07:00:00 2,0 -3,7 24 13 29 16 OZO 1026,4 10
23.02.2018 06:00:00 1,9 -3,7 22 12 29 16 OZO 1026,3 10
23.02.2018 05:00:00 2,0 -3,7 22 12 29 16 OZO 1026,1 10
23.02.2018 04:00:00 2,1 -2,8 24 13 29 16 OZO 1026,2 10
23.02.2018 03:00:00 2,1 -3,1 22 12 29 16 OZO 1026,5 10
23.02.2018 02:00:00 2,3 -2,3 24 13 29 16 OZO 1026,6 10
23.02.2018 01:00:00 2,5 -1,2 16 9 22 12 ZO 1026,7 10
23.02.2018 00:00:00 3,0 -0,4 18 10 25 14 OZO 1026,7 10
22.02.2018 23:00:00 3,1 0,1 18 10 25 14 OZO 1026,7 10
22.02.2018 22:00:00 3,1 -0,1 22 12 25 14 OZO 1026,5 10
22.02.2018 21:00:00 3,2 -0,1 16 9 29 16 ZO 1026,5 10
22.02.2018 20:00:00 3,2 0,8 25 14 32 18 OZO 1026,5 37
22.02.2018 19:00:00 4,2 1,5 16 9 25 14 - 1026,2 10
22.02.2018 18:00:00 4,6 1,5 15 8 22 12 NNO 1026,2 10
22.02.2018 17:00:00 4,6 1,7 15 8 18 10 NO 1026,2 10
22.02.2018 16:00:00 5,0 1,5 11 6 18 10 NNO 1026,3 17
22.02.2018 15:00:00 4,6 0,5 8 4 11 6 NNO 1026,7 10
22.02.2018 14:00:00 4,4 -0,6 13 7 14 8 N 1027,1 10
22.02.2018 13:00:00 4,3 -1,5 8 4 11 6 N 1027,7 10
22.02.2018 12:00:00 4,0 -2,1 8 4 7 4 N 1027,9 10
22.02.2018 11:00:00 3,5 -2,4 4 2 7 4 - 1027,8 10
22.02.2018 10:00:00 3,1 -2,2 5 3 7 4 NNO 1027,9 10
22.02.2018 09:00:00 2,8 -3,0 2 1 4 2 - 1027,8 10
22.02.2018 08:00:00 2,6 -2,6 5 3 7 4 ONO 1027,7 10
22.02.2018 07:00:00 2,6 -2,7 8 4 11 6 ONO 1027,6 10
22.02.2018 06:00:00 2,7 -2,5 5 3 11 6 - 1027,7 10
22.02.2018 05:00:00 2,7 -2,6 8 4 11 6 OZO 1027,7 10
22.02.2018 04:00:00 2,7 -2,6 7 4 11 6 OZO 1027,9 38
22.02.2018 03:00:00 2,7 -2,7 8 4 11 6 O 1027,9 10
22.02.2018 02:00:00 2,7 -3,2 5 3 11 6 - 1028,0 10
22.02.2018 01:00:00 2,8 -3,4 9 5 14 8 - 1028,3 10
22.02.2018 00:00:00 2,7 -3,9 11 6 14 8 - 1028,3 10
21.02.2018 23:00:00 2,7 -4,0 13 7 18 10 - 1028,3 10
21.02.2018 22:00:00 2,6 -3,3 13 7 18 10 OZO 1028,3 10
21.02.2018 21:00:00 2,6 -2,8 13 7 18 10 OZO 1028,2 10
21.02.2018 20:00:00 2,5 -2,9 16 9 25 14 O 1028,1 10
21.02.2018 19:00:00 2,5 -2,9 15 8 22 12 - 1027,7 10
21.02.2018 18:00:00 2,6 -3,1 16 9 22 12 O 1027,2 10
21.02.2018 17:00:00 2,7 -3,5 18 10 22 12 O 1027,1 10
21.02.2018 16:00:00 2,8 -3,6 13 7 22 12 - 1027,2 10
21.02.2018 15:00:00 2,9 -3,7 11 6 22 12 O 1027,5 10
21.02.2018 14:00:00 2,9 -3,3 13 7 18 10 - 1027,9 10
21.02.2018 13:00:00 3,0 -2,9 11 6 18 10 - 1028,1 10
21.02.2018 12:00:00 3,0 -2,9 11 6 14 8 O 1028,1 22
21.02.2018 11:00:00 3,2 -2,8 9 5 18 10 - 1028,0 10
21.02.2018 10:00:00 3,2 -3,0 9 5 18 10 - 1027,7 10
21.02.2018 09:00:00 2,7 -3,4 11 6 18 10 O 1027,3 10
21.02.2018 08:00:00 2,5 -3,4 13 7 18 10 OZO 1026,9 10
21.02.2018 07:00:00 2,7 -3,4 15 8 18 10 O 1026,8 10
21.02.2018 06:00:00 2,9 -3,4 9 5 18 10 - 1027,1 10
21.02.2018 05:00:00 3,0 -2,5 13 7 18 10 ONO 1027,2 10
21.02.2018 04:00:00 3,1 -2,0 9 5 18 10 O 1027,2 10
21.02.2018 03:00:00 3,2 -1,5 15 8 18 10 OZO 1026,8 10
21.02.2018 02:00:00 3,3 -1,5 15 8 25 14 OZO 1026,6 10
21.02.2018 01:00:00 3,4 -1,4 21 11 25 14 OZO 1026,2 10
21.02.2018 00:00:00 3,4 -1,5 24 13 29 16 OZO 1025,8 10
20.02.2018 23:00:00 3,7 -1,6 21 11 29 16 O 1025,8 10
20.02.2018 22:00:00 4,0 0,0 16 9 22 12 O 1025,7 10
20.02.2018 21:00:00 3,9 -0,5 11 6 25 14 - 1025,0 10
20.02.2018 20:00:00 3,8 0,1 22 12 25 14 O 1024,2 10
20.02.2018 19:00:00 3,9 0,2 22 12 25 14 - 1023,5 10
20.02.2018 18:00:00 4,2 0,0 9 5 18 10 O 1022,9 7
20.02.2018 17:00:00 4,1 0,3 15 8 22 12 O 1022,1 7
20.02.2018 16:00:00 4,3 1,3 7 4 14 8 O 1021,6 6
20.02.2018 15:00:00 4,1 0,8 13 7 14 8 OZO 1021,5 6
20.02.2018 14:00:00 4,1 0,7 5 3 7 4 OZO 1021,3 7
20.02.2018 13:00:00 3,9 0,7 5 3 11 6 Z 1021,2 7
20.02.2018 12:00:00 3,9 0,5 9 5 14 8 Z 1021,0 7
20.02.2018 11:00:00 3,8 0,8 9 5 11 6 Z 1020,5 6
20.02.2018 10:00:00 3,7 1,3 7 4 14 8 Z 1020,3 6
20.02.2018 09:00:00 3,8 1,1 11 6 14 8 ZZO 1019,8 6
20.02.2018 08:00:00 3,9 1,2 9 5 14 8 ZZO 1019,5 5
20.02.2018 07:00:00 3,8 1,5 9 5 11 6 ZZO 1019,3 5
20.02.2018 06:00:00 3,9 1,6 5 3 11 6 ZZO 1019,2 5
20.02.2018 05:00:00 3,9 1,5 4 2 7 4 - 1019,4 8
20.02.2018 04:00:00 4,0 1,3 4 2 4 2 - 1019,6 8
20.02.2018 03:00:00 3,9 1,6 2 1 7 4 - 1019,5 7
20.02.2018 02:00:00 3,7 1,4 4 2 11 6 - 1019,4 6
20.02.2018 01:00:00 3,8 1,4 11 6 14 8 O 1019,2 7
20.02.2018 00:00:00 3,9 1,7 9 5 11 6 ZZO 1019,1 7
19.02.2018 23:00:00 3,9 1,2 5 3 7 4 ZZO 1018,8 9
19.02.2018 22:00:00 3,9 1,4 5 3 7 4 ZZO 1019,2 8
19.02.2018 21:00:00 3,8 1,4 4 2 7 4 - 1019,3 8
19.02.2018 20:00:00 3,8 1,1 8 4 7 4 Z 1019,2 8

tt = temperatuur
td = dauwpunt
ff = windsnelheid
fx = windstoten
dd = windrichting
ppp = luchtdruk
vv = zicht

Weerstations in de omgeving